Hourly Weather Viedma

Today, 8 July, Wednesday

Time Temperature Precipitation Wind Pressure Humidity
00:00 +4°C° 0 mm 6 mps 760 mmHg 69%
01:00 +3°C° 0 mm 7 mps 760 mmHg 72%
02:00 +3°C° 0 mm 7 mps 760 mmHg 75%
03:00 +3°C° 0 mm 7 mps 759 mmHg 77%
04:00 +3°C° 0 mm 7 mps 758 mmHg 78%
05:00 +2°C° 0 mm 8 mps 758 mmHg 79%
06:00 +3°C° 0.2 mm 7 mps 758 mmHg 80%
07:00 +3°C° 0.2 mm 7 mps 758 mmHg 82%
08:00 +3°C° 0.2 mm 7 mps 758 mmHg 83%
09:00 +3°C° 1.1 mm 7 mps 758 mmHg 84%
10:00 +3°C° 1.1 mm 7 mps 757 mmHg 86%
11:00 +3°C° 1.1 mm 7 mps 757 mmHg 87%
12:00 +4°C° 0.4 mm 7 mps 757 mmHg 84%
13:00 +4°C° 0.4 mm 6 mps 756 mmHg 82%
14:00 +5°C° 0.4 mm 6 mps 756 mmHg 79%
15:00 +6°C° 0 mm 5 mps 756 mmHg 79%
16:00 +6°C° 0 mm 4 mps 756 mmHg 80%
17:00 +5°C° 0 mm 3 mps 756 mmHg 80%
18:00 +5°C° 0 mm 3 mps 757 mmHg 77%
19:00 +5°C° 0 mm 3 mps 757 mmHg 74%
20:00 +5°C° 0 mm 3 mps 757 mmHg 71%
21:00 +4°C° 0 mm 3 mps 757 mmHg 69%
22:00 +4°C° 0 mm 3 mps 757 mmHg 67%
23:00 +4°C° 0 mm 4 mps 757 mmHg 65%

Tomorrow, 9 July, Thursday

Time Temperature Precipitation Wind Pressure Humidity
00:00 +3°C° 0 mm 4 mps 757 mmHg 67%
01:00 +3°C° 0 mm 4 mps 757 mmHg 69%
02:00 +3°C° 0 mm 4 mps 757 mmHg 70%
03:00 +1°C° 0 mm 4 mps 757 mmHg 73%
04:00 +1°C° 0 mm 4 mps 756 mmHg 75%
05:00 +1°C° 0 mm 4 mps 756 mmHg 77%
06:00 0°C° 0 mm 4 mps 756 mmHg 77%
07:00 0°C° 0 mm 4 mps 756 mmHg 76%
08:00 0°C° 0 mm 5 mps 756 mmHg 76%
09:00 +2°C° 0 mm 6 mps 756 mmHg 68%
10:00 +4°C° 0 mm 7 mps 756 mmHg 61%
11:00 +7°C° 0 mm 8 mps 755 mmHg 53%
12:00 +7°C° 0 mm 8 mps 755 mmHg 51%
13:00 +9°C° 0 mm 8 mps 754 mmHg 49%
14:00 +10°C° 0 mm 8 mps 753 mmHg 46%
15:00 +9°C° 0.3 mm 8 mps 753 mmHg 60%
16:00 +6°C° 0.3 mm 8 mps 752 mmHg 73%
17:00 +5°C° 0.3 mm 7 mps 752 mmHg 86%
18:00 +5°C° 0.8 mm 8 mps 751 mmHg 84%
19:00 +5°C° 0.8 mm 8 mps 750 mmHg 81%
20:00 +5°C° 0.8 mm 8 mps 749 mmHg 78%
21:00 +6°C° 0 mm 8 mps 748 mmHg 77%
22:00 +6°C° 0 mm 7 mps 748 mmHg 76%
23:00 +6°C° 0 mm 7 mps 747 mmHg 74%

Day after tomorrow, 10 July, Friday

Time Temperature Precipitation Wind Pressure Humidity
00:00 +7°C° 0 mm 6 mps 747 mmHg 76%
01:00 +5°C° 0 mm 6 mps 748 mmHg 79%
02:00 +5°C° 0 mm 6 mps 748 mmHg 81%
03:00 +6°C° 0 mm 5 mps 749 mmHg 81%
04:00 +6°C° 0 mm 5 mps 749 mmHg 82%
05:00 +6°C° 0 mm 5 mps 750 mmHg 82%
06:00 +5°C° 0 mm 5 mps 751 mmHg 81%
07:00 +5°C° 0 mm 5 mps 752 mmHg 80%
08:00 +5°C° 0 mm 5 mps 753 mmHg 79%
09:00 +5°C° 0 mm 6 mps 753 mmHg 73%
10:00 +7°C° 0 mm 6 mps 754 mmHg 67%
11:00 +8°C° 0 mm 7 mps 755 mmHg 61%
12:00 +8°C° 0 mm 7 mps 755 mmHg 59%
13:00 +8°C° 0 mm 7 mps 755 mmHg 57%
14:00 +8°C° 0 mm 7 mps 755 mmHg 55%
15:00 +7°C° 0 mm 6 mps 756 mmHg 57%
16:00 +6°C° 0 mm 5 mps 756 mmHg 60%
17:00 +5°C° 0 mm 4 mps 756 mmHg 63%
18:00 +4°C° 0 mm 3 mps 756 mmHg 62%
19:00 +4°C° 0 mm 3 mps 757 mmHg 62%
20:00 +4°C° 0 mm 2 mps 757 mmHg 61%
21:00 +3°C° 0 mm 3 mps 757 mmHg 62%
22:00 +2°C° 0 mm 3 mps 757 mmHg 62%
23:00 +2°C° 0 mm 3 mps 757 mmHg 63%

11 July, Saturday

Time Temperature Precipitation Wind Pressure Humidity
00:00 +2°C° 0 mm 3 mps 756 mmHg 63%
01:00 +2°C° 0 mm 3 mps 756 mmHg 63%
02:00 0°C° 0 mm 4 mps 756 mmHg 63%
03:00 0°C° 0 mm 4 mps 755 mmHg 63%
04:00 +1°C° 0 mm 4 mps 755 mmHg 62%
05:00 +1°C° 0 mm 4 mps 754 mmHg 61%
06:00 +1°C° 0 mm 4 mps 754 mmHg 66%
07:00 +1°C° 0 mm 4 mps 753 mmHg 71%
08:00 +1°C° 0 mm 4 mps 752 mmHg 76%
09:00 +4°C° 0 mm 6 mps 752 mmHg 71%
10:00 +6°C° 0 mm 9 mps 752 mmHg 67%
11:00 +9°C° 0 mm 11 mps 751 mmHg 62%
12:00 +9°C° 0 mm 10 mps 751 mmHg 60%
13:00 +9°C° 0 mm 10 mps 751 mmHg 58%
14:00 +11°C° 0 mm 10 mps 751 mmHg 56%
15:00 +10°C° 0 mm 8 mps 751 mmHg 58%
16:00 +9°C° 0 mm 7 mps 751 mmHg 59%
17:00 +7°C° 0 mm 5 mps 751 mmHg 61%
18:00 +7°C° 0 mm 5 mps 752 mmHg 59%
19:00 +7°C° 0 mm 5 mps 752 mmHg 57%
20:00 +6°C° 0 mm 4 mps 752 mmHg 55%
21:00 +6°C° 0 mm 4 mps 752 mmHg 56%
22:00 +5°C° 0 mm 4 mps 752 mmHg 57%
23:00 +5°C° 0 mm 4 mps 752 mmHg 57%

12 July, Sunday

Time Temperature Precipitation Wind Pressure Humidity
00:00 +5°C° 0 mm 4 mps 752 mmHg 60%
01:00 +5°C° 0 mm 4 mps 752 mmHg 63%
02:00 +4°C° 0 mm 4 mps 752 mmHg 66%
03:00 +4°C° 0 mm 4 mps 752 mmHg 69%
04:00 +4°C° 0 mm 4 mps 752 mmHg 73%
05:00 +4°C° 0 mm 4 mps 752 mmHg 76%
06:00 +4°C° 0 mm 4 mps 752 mmHg 75%
07:00 +5°C° 0 mm 5 mps 753 mmHg 74%
08:00 +5°C° 0 mm 5 mps 753 mmHg 74%
09:00 +5°C° 0 mm 6 mps 753 mmHg 69%
10:00 +7°C° 0 mm 6 mps 753 mmHg 64%
11:00 +8°C° 0 mm 6 mps 754 mmHg 59%
12:00 +8°C° 0 mm 6 mps 754 mmHg 56%
13:00 +8°C° 0 mm 7 mps 753 mmHg 53%
14:00 +9°C° 0 mm 7 mps 753 mmHg 50%
15:00 +8°C° 0 mm 6 mps 753 mmHg 53%
16:00 +7°C° 0 mm 5 mps 754 mmHg 55%
17:00 +6°C° 0 mm 4 mps 754 mmHg 57%
18:00 +6°C° 0 mm 4 mps 754 mmHg 60%
19:00 +5°C° 0 mm 4 mps 755 mmHg 63%
20:00 +5°C° 0 mm 4 mps 755 mmHg 66%
21:00 +5°C° 0 mm 5 mps 755 mmHg 64%
22:00 +5°C° 0 mm 5 mps 756 mmHg 63%
23:00 +5°C° 0 mm 5 mps 756 mmHg 62%

13 July, Monday

Time Temperature Precipitation Wind Pressure Humidity
00:00 +3°C° 0 mm 5 mps 757 mmHg 61%
01:00 +3°C° 0 mm 5 mps 757 mmHg 60%
02:00 +3°C° 0 mm 5 mps 758 mmHg 59%
03:00 +3°C° 0 mm 5 mps 758 mmHg 58%
04:00 +2°C° 0 mm 5 mps 759 mmHg 58%
05:00 +2°C° 0 mm 5 mps 759 mmHg 57%
06:00 +2°C° 0 mm 5 mps 760 mmHg 57%
07:00 +2°C° 0 mm 5 mps 760 mmHg 56%
08:00 +3°C° 0 mm 4 mps 761 mmHg 56%
09:00 +3°C° 0 mm 5 mps 762 mmHg 49%
10:00 +5°C° 0 mm 6 mps 762 mmHg 43%
11:00 +6°C° 0 mm 7 mps 763 mmHg 37%
12:00 +6°C° 0 mm 7 mps 763 mmHg 38%
13:00 +6°C° 0 mm 7 mps 763 mmHg 38%
14:00 +6°C° 0 mm 7 mps 763 mmHg 39%
15:00 +7°C° 0 mm 6 mps 764 mmHg 44%
16:00 +6°C° 0 mm 5 mps 764 mmHg 49%
17:00 +5°C° 0 mm 4 mps 764 mmHg 53%
18:00 +4°C° 0 mm 4 mps 764 mmHg 55%
19:00 +3°C° 0 mm 4 mps 765 mmHg 56%
20:00 +3°C° 0 mm 3 mps 765 mmHg 58%
21:00 +3°C° 0 mm 3 mps 765 mmHg 58%
22:00 +2°C° 0 mm 3 mps 766 mmHg 58%
23:00 +2°C° 0 mm 3 mps 766 mmHg 59%
Show more